Tracking 30918 objects as of 2-Jul-2025
HD Live streaming from Space Station
objects crossing your sky now

STARLINK-33576

Track STARLINK-33576 now!
10-day predictions
STARLINK-33576 is classified as:


NORAD ID: 62775
Int'l Code: 2025-015T
Perigee: 481.6 km
Apogee: 483.2 km
Inclination: 53.2 °
Period: 94.1 minutes
Semi major axis: 6853 km
RCS: Unknown
Launch date: January 21, 2025
Source: United States (US)
Launch site: AIR FORCE WESTERN TEST RANGE (AFWTR)
Your satellite tracking list
STARLINK-30120
Track 1 satellite(s)




NASA's NSSDC Master Catalog

Two Line Element Set (TLE):
1 62775U 25015T   25182.90595254  .00025102  00000-0  85712-3 0  9993
2 62775  53.1583  47.4206 0001193  86.7388 273.3749 15.30187172 26021
Source of the keplerian elements: AFSPC